Regional Weather Roundup
Issued by NWS Kansas City/Pleasant Hill, MO

Home | Current Version | Previous Version | Text Only | Print | Product List | Glossary On
Versions: 1 2 3 4 5 6 7 8 9 10 11 12 13 14 15 16 17 18 19 20 21 22 23 24 25 26 27 28 29 30 31 32 33 34 35 36 37 38 39 40 41 42 43 44 45 46 47 48 49 50
000
ASUS43 KEAX 242210
RWREAX

WEATHER ROUNDUP FOR EASTERN KANSAS AND NORTHWEST MISSOURI
NATIONAL WEATHER SERVICE KANSAS CITY/PLEASANT HILL MO
500 PM CDT FRI OCT 24 2014

KSZ040-057-103>105-MOZ028-029-037-043-242300-
...KANSAS CITY METROPOLITAN AREA...

CITY           SKY/WX    TMP DP  RH WIND       PRES   REMARKS
K.C. INTL      PTSUNNY   75  64  68 SW15      29.93F
K.C. DOWNTOWN  MOSUNNY   77  62  59 SW10      29.93F
LEES SUMMIT    PTSUNNY   76  62  62 SW13      29.96F
OLATHE - IXD   PTSUNNY   75  63  66 SW15      29.97F
OLATHE - OJC   PTSUNNY   75  62  64 SW9       29.96F
LAWRENCE       PTSUNNY   75  63  66 S8        29.94F

$$

MOZ001>008-011>017-020>025-030>033-038>040-044>046-053-054-242300-
...NORTHERN AND CENTRAL MISSOURI...

CITY           SKY/WX    TMP DP  RH WIND       PRES   REMARKS
ST. JOSEPH     SUNNY     78  63  59 SW17      29.90F
MOSBY          PTCLDY    77  61  57 S7        29.92F
WHITEMAN AFB   PTSUNNY   75  62  64 SW15      29.96F
CLINTON        PTSUNNY   75  63  64 SW9       30.00F HAZE
SEDALIA        MOSUNNY   74  60  61 SW13      29.99S
WARSAW         NOT AVBL
MARSHALL       MOSUNNY   75  63  64 S10G16    29.97S
CHILLICOTHE      N/A     74  62  66 S9        29.93F
MOBERLY        PTSUNNY   73  57  56 S12       29.97S
KIRKSVILLE     PTSUNNY   71  61  70 S12       29.94F

$$

MOZ041-047>049-056>058-063>065-088>090-097-242300-
...EASTERN AND SOUTHERN MISSOURI...

CITY           SKY/WX    TMP DP  RH WIND       PRES   REMARKS
ST. LOUIS INTL PTSUNNY   74  45  35 S6        30.02F
SPIRIT OF STL  MOSUNNY   73  48  41 SW7       30.00F
COLUMBIA       PTSUNNY   72  60  66 S13       29.99F
JEFFERSON CITY PTSUNNY   75  59  57 S9        29.99S
MEXICO         PTSUNNY   73  64  73 S10       29.98S
HANNIBAL       MOSUNNY   72  57  60 S12G17    29.97S
ROLLA          MOSUNNY   69  59  70 S9        30.02F
LEBANON        MOSUNNY   72  59  64 SW6       30.04F
OSAGE BEACH    PTSUNNY   75  57  53 SW8       30.02S
SPRINGFIELD    CLOUDY    73  60  63 SW9       30.05S
BRANSON        CLOUDY    77  59  53 NW5       30.07F
JOPLIN         PTSUNNY   73  61  65 S12       30.04S
WEST PLAINS    MOSUNNY   71  57  61 SW6       30.08S

$$

IAZ060-094-KSZ022-034>040-054-083-096-NEZ052-066-093-242300-
...KANSAS...SOUTHEAST NEBRASKA AND IOWA...

CITY           SKY/WX    TMP DP  RH WIND       PRES   REMARKS
TOPEKA         PTSUNNY   79  63  57 S12       29.93F
MANHATTAN      PTSUNNY   82  64  54 SW16G23   29.91F
EMPORIA        MOSUNNY   78  60  53 SW15      29.97F
CHANUTE        PTSUNNY   75  62  64 S12       30.01S
WICHITA        MOSUNNY   82  60  47 S15       29.98F
OMAHA          PTSUNNY   74  58  57 SW3       29.90S
LINCOLN        PTSUNNY   76  56  49 NW3       29.93R
FALLS CITY     SUNNY     79  63  57 SW13      29.89S
LAMONI         PTSUNNY   69  62  78 SW9       29.92R
DES MOINES     CLOUDY    67  61  81 SW8       29.89S

$$




USA.gov is the U.S. government's official web portal to all federal, state and local government web resources and services.